International Virtual Aviation Organisation

Russian Federation and Kazakhstan MCD

 

Карточка аэропорта URRP

Внимание!
Информация на этой странице в стадии наполнения.
Если вы не увидели какой-то информации, или заметили неточность - пожалуйста сообщите нам!
Спасибо!
Команда RU-STAFF
Название аэропортаПлатов
Название аэропорта (англ.)Platov
Превышение282 ft. (86 m.)
Координаты47°29.634', 39°55.482'
Высота перехода900
Эшелон перехода050
Коды ответчика1000-1017
Зона ОрВДРостов-на-Дону РПИ (URRV)
Данные METARURRP 130930Z 09008MPS 9999 SCT009 BKN028 01/M01 Q1016 R05/CLRD70 TEMPO 13010G17MPS 3000 BR SCT004 OVC015 RMK QFE758/1010
Проноз погоды (TAF)URRP 130800Z 1309/1409 11008G15MPS 9999 BKN007 OVC015 TEMPO 1309/1321 13012G18MPS 3100 -SG BR BKN003 OVC010 PROB40 1309/1321 -FZDZ TEMPO 1321/1409 13009G16MPS 3100 -SHRASN BR BKN003 BKN020CB
NOTAMshow/hide NOTAM
AWOS   TABLE

Информация о ВПП

ВПП Длина ВПП (м.) Покрытие Курс ВПП Частота ILS
053900Цементобетон46111.5
233900Цементобетон226110.9

Диспетчерские позиции

Позывной Наименование органа УВД Частота
URRP_TWRПлатов-вышка119.7
URRP_R_APPПлатов - Круг121.2
URRP_APPПлатов-подход128.2
URRP_GNDПлатов - руление119.0



Спутниковое изображение